Amateur Radio Satellites - All Passes

Search period start: 20 June 2013 03:12
Search period end: 21 June 2013 03:12
Location: Santa Fe, 35.6870°N, 105.9370°W

Satellite Date Start Highest point End Downlink Frequencies (MHz)
Time Altitude Azimuth
AO-Echo 20 Jun 03:17:41 03:22:32 39° 98° (E) 03:27:27 ?
Uribyol 2 20 Jun 03:20:48 03:26:00 69° 286° (WNW) 03:31:08 436.500 FM
Uosat F 20 Jun 03:38:49 03:42:35 21° 95° (E) 03:46:20 435.120 FM
KITSAT 1 20 Jun 03:46:11 03:54:00 53° 249° (WSW) 04:01:47 435.175 FM
TMSAT-1 20 Jun 03:49:00 03:52:19 17° 93° (E) 03:55:36 436.925 FM
Oscar 19 20 Jun 04:00:54 04:04:54 24° 293° (WNW) 04:08:53 437.125 CW, 437.150 USB
UOSAT-12 20 Jun 04:28:04 04:32:28 52° 303° (WNW) 04:36:55 437.025 FM, 437.400 FM
ITAMSAT 1 20 Jun 04:28:18 04:31:36 17° 295° (WNW) 04:34:54 435.822 SSB
Gurwin Techsat 1B 20 Jun 04:28:21 04:33:38 64° 101° (ESE) 04:38:54 435.225 FM
AO-27 20 Jun 04:29:45 04:32:54 16° 296° (WNW) 04:36:03 436.795 MHz FM
AO-Echo 20 Jun 04:57:04 05:01:03 23° 292° (WNW) 05:05:06 ?
Uosat F 20 Jun 05:16:49 05:21:28 38° 289° (WNW) 05:26:07 435.120 FM
AO-7 20 Jun 05:22:10 05:29:57 41° 100° (E) 05:37:39 29.400 - 29.500 MHz
TMSAT-1 20 Jun 05:27:22 05:32:30 52° 287° (WNW) 05:37:37 436.925 FM
MaSat-1 20 Jun 05:42:21 05:44:51 89° 65° (ENE) 05:47:27 437.345 MHz
Gurwin Techsat 1B 20 Jun 06:10:13 06:13:01 15° 297° (WNW) 06:15:50 435.225 FM
STRAND 1 20 Jun 06:46:07 06:51:14 88° 256° (WSW) 06:56:25 ?
Saudisat 1A 20 Jun 06:51:44 06:55:53 35° 54° (NE) 06:59:57 436.775 MHz
AO-7 20 Jun 07:14:59 07:22:37 41° 296° (WNW) 07:30:12 29.400 - 29.500 MHz
JAS-1B 20 Jun 07:45:05 07:50:26 32° 99° (E) 07:56:28 435.800 - 435.900 CW/SSB
Hamsat 20 Jun 07:46:47 07:51:04 53° 100° (E) 07:55:18 145.90 MHz
SO-67 20 Jun 08:03:11 08:05:59 21° 95° (E) 08:08:46 435.3500 MHz FM
Saudisat 1A 20 Jun 08:31:58 08:35:19 21° 250° (WSW) 08:38:37 436.775 MHz
PCSat 20 Jun 08:49:03 08:51:12 12° 46° (NE) 08:53:20 145.825 MHz
Sapphire 20 Jun 09:22:12 09:26:20 22° 52° (NE) 09:30:26 437.095 MHz 1200 baud AX-25 AFSK
Hamsat 20 Jun 09:24:56 09:26:38 12° 294° (WNW) 09:28:20 145.90 MHz
HO-68 20 Jun 09:34:36 09:40:31 27° 96° (E) 09:46:24 435.675 MHz FM
JAS-1B 20 Jun 09:35:47 09:41:03 34° 290° (WNW) 09:46:58 435.800 - 435.900 CW/SSB
SO-67 20 Jun 09:36:45 09:39:16 18° 289° (WNW) 09:41:46 435.3500 MHz FM
SO-50 20 Jun 09:47:04 09:50:59 28° 52° (NE) 09:54:51 436.795 FM
AO-40 20 Jun 10:16:45 03:12:10 49° 188° (S) 10:34:18 Beacon 2401.320
PCSat 20 Jun 10:29:59 10:35:26 84° 64° (ENE) 10:40:51 145.825 MHz
JAS-2 20 Jun 10:50:23 10:55:42 82° 284° (WNW) 11:00:52 435.800 - 435.900 CW/SSB, 435.910 FM
OPAL 20 Jun 10:54:09 10:57:31 18° 96° (E) 11:00:53 ?
Sapphire 20 Jun 11:04:47 11:10:01 50° 249° (WSW) 11:15:13 437.095 MHz 1200 baud AX-25 AFSK
Oscar 11 20 Jun 11:06:09 11:10:32 72° 284° (WNW) 11:14:52 145.825 FM, Beacon 2401.500 USB
RS-15 20 Jun 11:14:57 11:26:40 60° 112° (ESE) 11:37:54 29.354 - 29.394 USB, Beacon 29.352 USB
HO-68 20 Jun 11:21:30 11:28:23 51° 291° (WNW) 11:35:15 435.675 MHz FM
SO-50 20 Jun 11:27:44 11:31:29 26° 248° (WSW) 11:35:12 436.795 FM
PCSat 20 Jun 12:17:49 12:18:03 10° 258° (WSW) 12:18:18 145.825 MHz
OPAL 20 Jun 12:31:52 12:36:34 44° 290° (WNW) 12:41:17 ?
Oscar 16 20 Jun 12:43:49 12:46:28 14° 64° (ENE) 12:49:07 437.025 USB, Beacon 2401.1428
Uribyol 2 20 Jun 12:59:15 13:02:04 15° 63° (ENE) 13:04:53 436.500 FM
UOSAT-12 20 Jun 13:00:23 13:04:56 57° 58° (ENE) 13:09:27 437.025 FM, 437.400 FM
RS-15 20 Jun 13:28:31 13:39:30 41° 312° (NW) 13:50:08 29.354 - 29.394 USB, Beacon 29.352 USB
Oscar 19 20 Jun 13:35:12 13:39:58 39° 71° (ENE) 13:44:44 437.125 CW, 437.150 USB
ITAMSAT 1 20 Jun 14:02:37 14:07:43 59° 73° (ENE) 14:12:51 435.822 SSB
AO-27 20 Jun 14:04:01 14:09:09 63° 74° (ENE) 14:14:19 436.795 MHz FM
Oscar 16 20 Jun 14:20:08 14:25:16 63° 259° (WSW) 14:30:24 437.025 USB, Beacon 2401.1428
ISS 20 Jun 14:27:02 14:29:33 20° 130° (SE) 14:32:04 145.800 FM
AO-Echo 20 Jun 14:28:29 14:32:42 34° 71° (ENE) 14:37:00 ?
Uribyol 2 20 Jun 14:35:50 14:40:59 62° 259° (WSW) 14:46:11 436.500 FM
UOSAT-12 20 Jun 14:42:29 14:44:35 13° 252° (WSW) 14:46:41 437.025 FM, 437.400 FM
Uosat F 20 Jun 14:49:42 14:53:28 22° 67° (ENE) 14:57:16 435.120 FM
TMSAT-1 20 Jun 15:07:05 15:10:54 21° 66° (ENE) 15:14:43 436.925 FM
Oscar 19 20 Jun 15:15:31 15:19:24 21° 265° (W) 15:23:18 437.125 CW, 437.150 USB
ITAMSAT 1 20 Jun 15:44:54 15:47:34 14° 268° (W) 15:50:14 435.822 SSB
Gurwin Techsat 1B 20 Jun 15:46:33 15:51:50 75° 75° (ENE) 15:57:09 435.225 FM
AO-27 20 Jun 15:46:41 15:49:03 13° 268° (W) 15:51:27 436.795 MHz FM
RS-15 20 Jun 15:50:39 15:56:25 15° 344° (NNW) 16:02:05 29.354 - 29.394 USB, Beacon 29.352 USB
ISS 20 Jun 16:03:07 16:06:06 32° 324° (NW) 16:09:05 145.800 FM
AO-Echo 20 Jun 16:08:06 16:11:34 20° 266° (W) 16:15:06 ?
KITSAT 1 20 Jun 16:16:40 16:23:31 32° 106° (ESE) 16:30:23 435.175 FM
AO-7 20 Jun 16:17:56 16:25:38 44° 64° (ENE) 16:33:22 29.400 - 29.500 MHz
Uosat F 20 Jun 16:27:24 16:32:01 37° 262° (W) 16:36:40 435.120 FM
TMSAT-1 20 Jun 16:45:26 16:50:28 44° 261° (W) 16:55:33 436.925 FM
Gurwin Techsat 1B 20 Jun 17:30:59 17:32:18 11° 270° (W) 17:33:37 435.225 FM
RS-15 20 Jun 18:09:09 18:15:46 17° 23° (NNE) 18:22:15 29.354 - 29.394 USB, Beacon 29.352 USB
KITSAT 1 20 Jun 18:10:43 18:18:30 52° 304° (WNW) 18:26:23 435.175 FM
AO-7 20 Jun 18:10:49 18:18:22 38° 261° (W) 18:26:01 29.400 - 29.500 MHz
MaSat-1 20 Jun 18:29:02 18:33:10 20° 108° (ESE) 18:36:43 437.345 MHz
JAS-1B 20 Jun 18:29:14 18:34:06 21° 66° (ENE) 18:38:32 435.800 - 435.900 CW/SSB
Hamsat 20 Jun 18:38:19 18:41:59 27° 71° (ENE) 18:45:41 145.90 MHz
STRAND 1 20 Jun 19:00:06 19:04:56 40° 99° (E) 19:09:44 ?
HO-68 20 Jun 20:02:28 20:06:25 16° 57° (ENE) 20:10:23 435.675 MHz FM
SO-67 20 Jun 20:08:30 20:12:03 79° 259° (WSW) 20:15:39 435.3500 MHz FM
MaSat-1 20 Jun 20:09:34 20:14:56 42° 295° (WNW) 20:19:10 437.345 MHz
KITSAT 1 20 Jun 20:12:56 20:16:03 12° 327° (NNW) 20:19:10 435.175 FM
Hamsat 20 Jun 20:14:38 20:18:00 22° 265° (W) 20:21:24 145.90 MHz
JAS-1B 20 Jun 20:17:31 20:24:29 53° 258° (WSW) 20:30:29 435.800 - 435.900 CW/SSB
RS-15 20 Jun 20:20:55 20:31:39 52° 52° (NE) 20:42:08 29.354 - 29.394 USB, Beacon 29.352 USB
PANSAT 20 Jun 20:37:05 20:39:39 17° 164° (SSE) 20:42:12 not established
STRAND 1 20 Jun 20:39:59 20:43:50 22° 294° (WNW) 20:47:41 ?
Saudisat 1A 20 Jun 20:57:19 21:00:27 19° 109° (ESE) 21:03:37 436.775 MHz
JAS-2 20 Jun 20:58:10 21:04:38 35° 69° (ENE) 21:10:33 435.800 - 435.900 CW/SSB, 435.910 FM
ISS 20 Jun 20:58:32 20:59:53 12° 25° (NNE) 21:01:15 145.800 FM
HO-68 20 Jun 21:45:59 21:53:08 89° 254° (WSW) 22:00:20 435.675 MHz FM
Oscar 11 20 Jun 21:58:23 22:02:40 61° 75° (ENE) 22:07:00 145.825 FM, Beacon 2401.500 USB
OPAL 20 Jun 22:06:19 22:10:20 25° 66° (ENE) 22:14:20 ?
PANSAT 20 Jun 22:16:10 22:19:30 27° 177° (S) 22:22:49 not established
ISS 20 Jun 22:33:46 22:37:02 80° 42° (NE) 22:40:18 145.800 FM
RS-15 20 Jun 22:33:46 22:43:36 41° 253° (WSW) 22:53:23 29.354 - 29.394 USB, Beacon 29.352 USB
Saudisat 1A 20 Jun 22:35:31 22:39:49 40° 305° (NW) 22:44:11 436.775 MHz
JAS-2 20 Jun 22:42:35 22:49:30 40° 261° (W) 22:55:49 435.800 - 435.900 CW/SSB, 435.910 FM
PCSat 20 Jun 23:28:02 23:31:16 16° 104° (ESE) 23:34:31 145.825 MHz
HO-68 20 Jun 23:38:44 23:41:36 13° 269° (W) 23:44:30 435.675 MHz FM
OPAL 20 Jun 23:44:32 23:49:03 33° 260° (W) 23:53:33 ?
PANSAT 20 Jun 23:56:17 23:59:25 23° 189° (S) 00:02:32 not established
SO-50 21 Jun 00:00:33 00:03:52 19° 110° (ESE) 00:07:09 436.795 FM
Sapphire 21 Jun 00:00:55 00:05:40 32° 109° (ESE) 00:10:26 437.095 MHz 1200 baud AX-25 AFSK
KITSAT 1 21 Jun 00:14:26 00:17:06 12° 32° (NNE) 00:19:46 435.175 FM
PCSat 21 Jun 01:08:51 01:14:09 57° 299° (WNW) 01:19:30 145.825 MHz
PANSAT 21 Jun 01:38:11 01:39:10 11° 201° (SSW) 01:40:10 not established
SO-50 21 Jun 01:39:37 01:44:10 43° 304° (NW) 01:48:40 436.795 FM
Sapphire 21 Jun 01:44:17 01:49:02 31° 305° (NW) 01:53:48 437.095 MHz 1200 baud AX-25 AFSK
Oscar 19 21 Jun 01:50:53 01:54:11 17° 93° (E) 01:57:29 437.125 CW, 437.150 USB
KITSAT 1 21 Jun 02:06:56 02:14:46 49° 56° (NE) 02:22:32 435.175 FM
ITAMSAT 1 21 Jun 02:19:09 02:23:33 27° 96° (E) 02:27:54 435.822 SSB
AO-27 21 Jun 02:20:39 02:25:09 29° 97° (E) 02:29:37 436.795 MHz FM
Oscar 16 21 Jun 02:34:57 02:40:01 59° 101° (E) 02:45:02 437.025 USB, Beacon 2401.1428
AO-Echo 21 Jun 02:39:24 02:42:30 16° 93° (E) 02:45:37 ?
Uribyol 2 21 Jun 02:51:41 02:56:51 61° 101° (E) 03:01:58 436.500 FM

Developed and maintained by Chris Peat, Heavens-Above GmbH. Please read the updated FAQ before sending e-mail. Imprint. DLR
